Tracking 17631 objects as of 5-May-2016
HD Live streaming from Space Station
objects crossing your sky now

SL-14 R/B

Track SL-14 R/B now!
10-day predictions


NORAD ID: 15370
Int'l Code: 1984-111B
Perigee: 611.3 km
Apogee: 639.3 km
Inclination: 82.5 °
Period: 97.1 minutes
Semi major axis: 6996 km
RCS: 4.088 m2 (large)
Launch date: October 18, 1984
Source: Commonwealth of Independent States (former USSR) (CIS)
Launch site: PLESETSK MISSILE AND SPACE COMPLEX (PKMTR)

Note: This is a ROCKET BODY
Your satellite tracking list
Your tracking list is empty





NASA's NSSDC Master Catalog

Two Line Element Set (TLE):
1 15370U 84111B   16126.20649106  .00000153  00000-0  15700-4 0  9991
2 15370  82.5193  29.9323 0019987 323.2441  36.7402 14.83539880703682
Source of the keplerian elements: AFSPC

N2YO: 335